Location: Praha
(50.0830°N, 14.4670°E)
Time: 03:53:24
(UTC+02:00)

ISS - Pass Details

Date: 17 May 2024
Orbit: 409 x 414 km, 51.6° (Epoch: 23 May)

Event Time Altitude Azimuth Distance (km) Brightness Sun altitude
Rises 22:38:58 0° 278° (W) 2,350 0.7 -13.8°
Reaches altitude 10° 22:41:05 10° 281° (WNW) 1,486 -0.3 -14.0°
Maximum altitude 22:44:24 66° 4° (N) 455 -3.4 -14.3°
Enters shadow 22:47:21 12° 87° (E) 1,341 -1.5 -14.5°
